This is the latest recevied weather packets stored in our database for station/object IW1RCO-13. If no packets are shown the sender has not sent any weather packets the latest 10 day(s).
| Time | Temp. | Humidity | Pressure | Rain* | Wind** | Luminosity | Snow |
|---|---|---|---|---|---|---|---|
| 1788583169 | 16.67° C | 63% | 1018.8 hPa | - | - | - | - |
| 1788582873 | 16.67° C | 67% | 1018.7 hPa | - | - | - | - |
| 1788582569 | 17.22° C | 66% | 1019.2 hPa | - | - | - | - |
| 1788582272 | 16.67° C | 64% | 1018.2 hPa | - | - | - | - |
| 1788581969 | 16.67° C | 64% | 1018 hPa | - | - | - | - |
| 1788581672 | 16.67° C | 62% | 1018.5 hPa | - | - | - | - |
| 1788581368 | 16.67° C | 59% | 1018 hPa | - | - | - | - |
| 1788581072 | 16.67° C | 61% | 1018.5 hPa | - | - | - | - |
| 1788580768 | 17.22° C | 58% | 1018.4 hPa | - | - | - | - |
| 1788580471 | 16.67° C | 59% | 1018.6 hPa | - | - | - | - |
| 1788580168 | 17.22° C | 54% | 1018.9 hPa | - | - | - | - |
| 1788579905 | 17.22° C | 51% | 1018.6 hPa | - | - | - | - |
| 1788579567 | 17.22° C | 56% | 1019.1 hPa | - | - | - | - |
| 1788579271 | 17.78° C | 52% | 1018.6 hPa | - | - | - | - |
| 1788575973 | 17.22° C | 58% | 1019.2 hPa | - | - | - | - |
| 1788575669 | 17.22° C | 56% | 1018.4 hPa | - | - | - | - |
| 1788575069 | 17.22° C | 54% | 1018.1 hPa | - | - | - | - |
| 1788574772 | 17.22° C | 58% | 1019.2 hPa | - | - | - | - |
| 1788574469 | 17.78° C | 53% | 1019.4 hPa | - | - | - | - |
| 1788574172 | 17.22° C | 56% | 1018.3 hPa | - | - | - | - |
| 1788573868 | 17.22° C | 57% | 1018.6 hPa | - | - | - | - |
| 1788573572 | 17.22° C | 56% | 1018.9 hPa | - | - | - | - |
| 1788573268 | 17.78° C | 56% | 1018.7 hPa | - | - | - | - |
| 1788572971 | 17.78° C | 54% | 1019.3 hPa | - | - | - | - |
| 1788572668 | 18.33° C | 53% | 1019.2 hPa | - | - | - | - |
* Rain since midnight (hover to see other rain measurements)
** Current wind speed in m/s (hover to see current wind gust speed)